• Em Portugal
  • Lista de países
  • Para 7 dias
  • Temperatura da água
  • Mapas de satélite
  • Mapa do tempo
  • Widgets de tempo
  • user-avatar
    Iniciar Sessão

    Previsão horária em Yablonovka

    Hoje, 21 Agosto, Terça-feira

    Tempo Temperatura Precipitação Vento Pressão Humidade
    00:00 +21°C° 0,4 mm 1 m/s 745 mmHg 95%
    01:00 +21°C° 1 mm 1 m/s 745 mmHg 96%
    02:00 +21°C° 1 mm 1 m/s 745 mmHg 96%
    03:00 +20°C° 1 mm 1 m/s 744 mmHg 97%
    04:00 +20°C° 1,2 mm 1 m/s 744 mmHg 97%
    05:00 +19°C° 1,2 mm 2 m/s 744 mmHg 97%
    06:00 +19°C° 1,2 mm 2 m/s 743 mmHg 97%
    07:00 +18°C° 3,2 mm 2 m/s 743 mmHg 97%
    08:00 +18°C° 3,2 mm 3 m/s 743 mmHg 97%
    09:00 +18°C° 3,2 mm 3 m/s 742 mmHg 97%
    10:00 +18°C° 1,3 mm 3 m/s 742 mmHg 97%
    11:00 +18°C° 1,3 mm 4 m/s 741 mmHg 96%
    12:00 +19°C° 1,3 mm 4 m/s 741 mmHg 96%
    13:00 +19°C° 1,4 mm 4 m/s 740 mmHg 96%
    14:00 +19°C° 1,4 mm 4 m/s 740 mmHg 95%
    15:00 +20°C° 1,4 mm 4 m/s 739 mmHg 95%
    16:00 +20°C° 1 mm 4 m/s 739 mmHg 95%
    17:00 +20°C° 1 mm 3 m/s 739 mmHg 96%
    18:00 +20°C° 1 mm 3 m/s 738 mmHg 96%
    19:00 +20°C° 0,4 mm 3 m/s 739 mmHg 97%
    20:00 +20°C° 0,4 mm 2 m/s 739 mmHg 97%
    21:00 +20°C° 0,4 mm 2 m/s 739 mmHg 98%
    22:00 +20°C° 0 mm 2 m/s 739 mmHg 98%
    23:00 +19°C° 0 mm 2 m/s 739 mmHg 98%

    Amanhã, 22 Agosto, Quarta-feira

    Tempo Temperatura Precipitação Vento Pressão Humidade
    00:00 +19°C° 0 mm 2 m/s 739 mmHg 98%
    01:00 +19°C° 0 mm 2 m/s 740 mmHg 98%
    02:00 +19°C° 0 mm 2 m/s 740 mmHg 98%
    03:00 +19°C° 0 mm 2 m/s 740 mmHg 98%
    04:00 +19°C° 0 mm 2 m/s 740 mmHg 98%
    05:00 +19°C° 0 mm 3 m/s 740 mmHg 98%
    06:00 +19°C° 0 mm 3 m/s 741 mmHg 98%
    07:00 +20°C° 0 mm 3 m/s 741 mmHg 92%
    08:00 +21°C° 0 mm 4 m/s 741 mmHg 87%
    09:00 +23°C° 0 mm 4 m/s 742 mmHg 82%
    10:00 +23°C° 0 mm 4 m/s 742 mmHg 76%
    11:00 +25°C° 0 mm 4 m/s 742 mmHg 70%
    12:00 +26°C° 0 mm 4 m/s 743 mmHg 64%
    13:00 +27°C° 0 mm 4 m/s 743 mmHg 63%
    14:00 +27°C° 0 mm 4 m/s 743 mmHg 62%
    15:00 +27°C° 0 mm 4 m/s 743 mmHg 61%
    16:00 +26°C° 0 mm 3 m/s 743 mmHg 68%
    17:00 +25°C° 0 mm 2 m/s 743 mmHg 75%
    18:00 +24°C° 0 mm 1 m/s 744 mmHg 81%
    19:00 +23°C° 0 mm 1 m/s 744 mmHg 84%
    20:00 +22°C° 0 mm 1 m/s 745 mmHg 88%
    21:00 +20°C° 0 mm 1 m/s 746 mmHg 91%
    22:00 +20°C° 0 mm 1 m/s 746 mmHg 92%
    23:00 +19°C° 0 mm 1 m/s 746 mmHg 92%

    Depois de amanhã, 23 Agosto, Quinta-feira

    Tempo Temperatura Precipitação Vento Pressão Humidade
    00:00 +19°C° 0 mm 1 m/s 746 mmHg 93%
    01:00 +19°C° 0 mm 1 m/s 747 mmHg 93%
    02:00 +19°C° 0 mm 1 m/s 747 mmHg 94%
    03:00 +17°C° 0 mm 0 m/s 747 mmHg 94%
    04:00 +17°C° 0 mm 0 m/s 747 mmHg 94%
    05:00 +17°C° 0 mm 0 m/s 747 mmHg 94%
    06:00 +17°C° 0 mm 0 m/s 747 mmHg 94%
    07:00 +18°C° 0 mm 0 m/s 748 mmHg 89%
    08:00 +20°C° 0 mm 0 m/s 748 mmHg 85%
    09:00 +21°C° 0 mm 0 m/s 748 mmHg 80%
    10:00 +22°C° 0 mm 0 m/s 748 mmHg 76%
    11:00 +23°C° 0 mm 0 m/s 748 mmHg 71%
    12:00 +26°C° 0 mm 1 m/s 748 mmHg 67%
    13:00 +26°C° 0 mm 1 m/s 748 mmHg 68%
    14:00 +26°C° 0 mm 1 m/s 747 mmHg 69%
    15:00 +26°C° 0 mm 1 m/s 747 mmHg 70%
    16:00 +25°C° 0 mm 1 m/s 747 mmHg 75%
    17:00 +24°C° 0 mm 1 m/s 746 mmHg 80%
    18:00 +23°C° 0 mm 1 m/s 746 mmHg 85%
    19:00 +23°C° 0,1 mm 1 m/s 746 mmHg 87%
    20:00 +22°C° 0,1 mm 1 m/s 746 mmHg 89%
    21:00 +22°C° 0,1 mm 1 m/s 747 mmHg 91%
    22:00 +20°C° 1,8 mm 2 m/s 746 mmHg 93%
    23:00 +20°C° 1,8 mm 2 m/s 746 mmHg 95%

    24 Agosto, Sexta-feira

    Tempo Temperatura Precipitação Vento Pressão Humidade
    00:00 +20°C° 1,8 mm 2 m/s 746 mmHg 97%
    01:00 +19°C° 2,5 mm 2 m/s 746 mmHg 97%
    02:00 +19°C° 2,5 mm 2 m/s 746 mmHg 97%
    03:00 +19°C° 2,5 mm 3 m/s 745 mmHg 97%
    04:00 +19°C° 0,5 mm 3 m/s 745 mmHg 96%
    05:00 +19°C° 0,5 mm 3 m/s 745 mmHg 96%
    06:00 +19°C° 0,5 mm 3 m/s 744 mmHg 95%
    07:00 +19°C° 0,1 mm 4 m/s 744 mmHg 92%
    08:00 +20°C° 0,1 mm 4 m/s 743 mmHg 89%
    09:00 +20°C° 0,1 mm 4 m/s 743 mmHg 85%
    10:00 +22°C° 0 mm 4 m/s 742 mmHg 78%
    11:00 +23°C° 0 mm 5 m/s 742 mmHg 70%
    12:00 +26°C° 0 mm 5 m/s 741 mmHg 63%
    13:00 +25°C° 0 mm 5 m/s 740 mmHg 65%
    14:00 +25°C° 0 mm 5 m/s 740 mmHg 66%
    15:00 +25°C° 0 mm 4 m/s 739 mmHg 68%
    16:00 +23°C° 0 mm 4 m/s 739 mmHg 72%
    17:00 +22°C° 0 mm 3 m/s 739 mmHg 76%
    18:00 +21°C° 0 mm 3 m/s 739 mmHg 80%
    19:00 +21°C° 0 mm 3 m/s 739 mmHg 79%
    20:00 +20°C° 0 mm 2 m/s 740 mmHg 79%
    21:00 +20°C° 0 mm 2 m/s 740 mmHg 78%
    22:00 +20°C° 0,1 mm 2 m/s 740 mmHg 80%
    23:00 +19°C° 0,1 mm 2 m/s 740 mmHg 81%

    25 Agosto, Sábado

    Tempo Temperatura Precipitação Vento Pressão Humidade
    00:00 +19°C° 0,1 mm 2 m/s 740 mmHg 83%
    01:00 +18°C° 2,2 mm 3 m/s 739 mmHg 87%
    02:00 +18°C° 2,2 mm 3 m/s 739 mmHg 91%
    03:00 +18°C° 2,2 mm 3 m/s 739 mmHg 96%
    04:00 +18°C° 0,4 mm 3 m/s 739 mmHg 96%
    05:00 +18°C° 0,4 mm 3 m/s 739 mmHg 95%
    06:00 +18°C° 0,4 mm 3 m/s 739 mmHg 95%
    07:00 +19°C° 0 mm 3 m/s 740 mmHg 91%
    08:00 +20°C° 0 mm 4 m/s 740 mmHg 87%
    09:00 +21°C° 0 mm 5 m/s 740 mmHg 83%
    10:00 +23°C° 0 mm 5 m/s 740 mmHg 75%
    11:00 +26°C° 0 mm 5 m/s 740 mmHg 68%
    12:00 +28°C° 0 mm 6 m/s 740 mmHg 60%
    13:00 +28°C° 0 mm 6 m/s 740 mmHg 62%
    14:00 +27°C° 0 mm 6 m/s 740 mmHg 63%
    15:00 +27°C° 0 mm 6 m/s 740 mmHg 65%
    16:00 +26°C° 0 mm 5 m/s 741 mmHg 68%
    17:00 +25°C° 0 mm 5 m/s 741 mmHg 71%
    18:00 +23°C° 0 mm 5 m/s 741 mmHg 74%
    19:00 +22°C° 0 mm 5 m/s 741 mmHg 75%
    20:00 +21°C° 0 mm 4 m/s 742 mmHg 77%
    21:00 +20°C° 0 mm 4 m/s 742 mmHg 79%
    22:00 +19°C° 0 mm 4 m/s 742 mmHg 79%
    23:00 +19°C° 0 mm 4 m/s 742 mmHg 80%

    26 Agosto, Domingo

    Tempo Temperatura Precipitação Vento Pressão Humidade
    00:00 +19°C° 0 mm 4 m/s 742 mmHg 80%
    01:00 +19°C° 0 mm 4 m/s 741 mmHg 81%
    02:00 +19°C° 0 mm 4 m/s 741 mmHg 81%
    03:00 +19°C° 0 mm 4 m/s 741 mmHg 82%
    04:00 +19°C° 0 mm 3 m/s 741 mmHg 83%
    05:00 +19°C° 0 mm 3 m/s 741 mmHg 85%
    06:00 +18°C° 0 mm 3 m/s 741 mmHg 87%
    07:00 +20°C° 0 mm 3 m/s 741 mmHg 83%
    08:00 +22°C° 0 mm 3 m/s 741 mmHg 78%
    09:00 +25°C° 0 mm 4 m/s 741 mmHg 73%
    10:00 +25°C° 0,6 mm 3 m/s 741 mmHg 77%
    11:00 +25°C° 0,6 mm 3 m/s 741 mmHg 81%
    12:00 +25°C° 0,6 mm 2 m/s 741 mmHg 85%
    13:00 +24°C° 1 mm 2 m/s 741 mmHg 87%
    14:00 +24°C° 1 mm 2 m/s 740 mmHg 89%
    15:00 +24°C° 1 mm 1 m/s 740 mmHg 91%
    16:00 +23°C° 1 mm 1 m/s 740 mmHg 92%
    17:00 +22°C° 1 mm 1 m/s 741 mmHg 94%
    18:00 +22°C° 1 mm 1 m/s 741 mmHg 95%
    19:00 +21°C° 0,5 mm 1 m/s 741 mmHg 95%
    20:00 +21°C° 0,5 mm 1 m/s 742 mmHg 95%
    21:00 +21°C° 0,5 mm 1 m/s 742 mmHg 96%
    22:00 +20°C° 0,1 mm 1 m/s 742 mmHg 96%
    23:00 +20°C° 0,1 mm 1 m/s 742 mmHg 97%
    Mostrar mais